White Mountain, AK

2:44 AM AKDT on May 26, 2017 (GMT -0800)
White Mountain | | Change Station

Elev 276 ft 64.69 °N, 163.41 °W | Updated 48 minutes ago

Partly Cloudy
Partly Cloudy
31 °F
Feels Like 23 °F
N
9
Wind Variable Wind from SSW
Gusts 17 mph

Today
High -- | Low -- °F
--% Chance of Precip.
Yesterday
High -- | Low -- °F
Precip. -- in
Pressure 29.86 in
Visibility 3.0 miles
Clouds Few 1000 ft
Scattered Clouds 1800 ft
Scattered Clouds 2500 ft
Windchill 23 °F
Dew Point 29 °F
Humidity 92%
Rainfall 0.00 in
Snow Depth Not available.
4:54 AM 0:49 AM
New Moon, 1% visible
METAR PAWM 260956Z AUTO 21008G15KT 3SM -SN BR FEW010 SCT018 SCT025 M01/M02 A2984 RMK AO2 UPB49E51SNB51 SLP109 P0000 T10061017 FZRANO
Pressure 29.86 in
Visibility 3.0 miles
Clouds Few 1000 ft
Scattered Clouds 1800 ft
Scattered Clouds 2500 ft
Windchill 23 °F
Dew Point 29 °F
Humidity 92%
Rainfall 0.00 in
Snow Depth Not available.
4:54 AM 0:49 AM
New Moon, 1% visible
METAR PAWM 260956Z AUTO 21008G15KT 3SM -SN BR FEW010 SCT018 SCT025 M01/M02 A2984 RMK AO2 UPB49E51SNB51 SLP109 P0000 T10061017 FZRANO

Get Severe Weather Alerts

Thanks for signing up!

Be on the lookout for a verification email in your inbox.

You'll start receiving the daily forecast at 6 AM.

×

10-Day Weather Forecast

Almanac

Astronomy

May. 26, 2017 Rise Set
Actual Time
Civil Twilight
Nautical Twilight
Astronomical Twilight
Moon
Length of Visible Light
Length of Day
Tomorrow will be .
, % of the Moon is Illuminated

Today's Extremes

State Highs State Lows

Community

WunderPhotos

Category 6

Welcome to Category 6. This is the collective home for Weather Underground's featured writeups by Dr. Jeff Masters (right), Bob Henson (left), Chris Burt, and other regular contributors.

Nearby

Air Quality

  Air Quality AQ Index Pollutant
Not available.

Snow Depth

Station Depth Elevation

Earthquake Activity

City Distance Mag. Time & Date
Minimum magnitude displayed is 2.5.

Coastal Water Temperatures

Place Temperature

Stations

Nearby Weather Stations

Station Location Temp. Windchill Dew Point Humidity Wind Precip. Elev Updated Type
                   

Watches & Warnings

There are currently no watches in effect.